TIANMU-1 21

Last updated on Wed Sep 23 2026 00:03:10 GMT+0000 (Coordinated Universal Time)

1 58662U 23208C 26265.58358027 .00007016 00000+0 19827-3 0 9994 2 58662 97.4588 26.3824 0006093 338.2036 21.8948 15.36653069152518
UTC large
Height (km)
Speed (km/s)
/
Latitude / Longitude
Inclination (degrees)
Orbital Period (minutes)
Azimuth
Elevation
Range (km)
Doppler Factor

Next 0 passes for location: London (51.5072 / 0.1276)

No passes found over London.
TIANMU-1 21